GRBBETA

Last updated on Thu Nov 21 2024 00:03:40 GMT+0000 (Coordinated Universal Time)

1 60237U 24128C 24325.23538736 .00006558 00000+0 54501-3 0 9999 2 60237 61.9944 59.9158 0027374 4.9379 355.1975 14.99376447 19970
UTC large
Height (km)
Speed (km/s)
/
Latitude / Longitude
Inclination (degrees)
Orbital Period (minutes)
Azimuth
Elevation
Range (km)
Doppler Factor

Next 0 passes for location: London (51.5072 / 0.1276)

Sorry there are no passes over London.